Regional Weather Roundup
Issued by NWS

Home | Current Version | Previous Version | Graphics & Text | Print | Product List | Glossary On
Versions: 1 2 3 4 5 6 7 8 9 10 11 12 13 14 15 16 17 18 19 20 21 22 23 24 25 26 27 28 29 30 31 32 33 34 35 36 37 38 39 40 41 42 43 44 45 46 47 48 49 50
769
ASUS45 KABQ 251701
RWRNM
NEW MEXICO REGIONAL WEATHER ROUNDUP
NATIONAL WEATHER SERVICE ALBUQUERQUE NM
1100 AM MDT TUE APR 25 2017

NOTE: "FAIR" MEANS FEW OR NO CLOUDS BELOW 12,000 FEET AGL WITH NO
       SIGNIFICANT WEATHER OR OBSTRUCTIONS TO VISION.

      THIS PRODUCT IS RELEASED AS TWO VERSIONS.  ONE VERSION NEAR
      THE TOP OF THE HOUR CONTAINING PRELIMINARY DATA FROM ALBUQUERQUE
      AND OTHER STATIONS.  A FINAL VERSION WITH ADDITIONAL DATA IS
      ISSUED ABOUT 10 MINUTES AFTER THE HOUR.

NMZ501-503-504-510>518-251800-
NORTHWEST PLATEAU/NORTHCENTRAL MOUNTAINS

CITY           SKY/WX    TMP DP  RH WIND       PRES   REMARKS
FARMINGTON     CLOUDY    46  38  73 SW8       29.72R
LOS ALAMOS     CLOUDY    45  38  77 S14G20    29.71F
SANTA FE       CLOUDY    46  44  93 SW20G25   29.71S
TAOS             N/A     46  30  53 SW17G24   29.69S
ANGEL FIRE     LGT RAIN  40  33  76 SW9       29.70F WCI  34

$$
NMZ402-403-502-505>509-251800-
WESTCENTRAL MOUNTAINS/SOUTHWEST MOUNTAINS

CITY           SKY/WX    TMP DP  RH WIND       PRES   REMARKS
GALLUP         RAIN      44  40  85 W14G21    29.78R
GRANTS         LGT RAIN  42  38  84 CALM      29.79S
SILVER CITY    PTSUNNY   66  26  21 W25G44    29.79S

$$
NMZ407-409-411-412-251800-
SOUTHERN DESERTS

CITY           SKY/WX    TMP DP  RH WIND       PRES   REMARKS
DEMING         FAIR      74  20  13 W28G36    29.74S
LAS CRUCES     FAIR      75  20  12 SW22G33   29.74R
HOLLOMAN AFB   PTSUNNY   71  21  15 W22G29    29.73F
ALAMOGORDO     CLOUDY    70  21  16 SW12G21   29.71F
T OR C         PTSUNNY   69  19  15 W10       29.70S

$$
NMZ519>523-251800-
CENTRAL VALLEYS/CENTRAL HIGHLANDS

CITY           SKY/WX    TMP DP  RH WIND       PRES   REMARKS
ALBUQUERQUE    LGT RAIN  47  45  93 SW9       29.75S
DOUBLE EAGLE   RAIN      45  43  93 SW16      29.75S FOG
MORIARTY ARPT  DRIZZLE   48  44  87 SW17      29.75F
CLINES CORNERS LGT RAIN  43  39  86 W33G43    29.72F
BELEN          CLOUDY    53  37  55 W14       29.74F
SOCORRO        PTSUNNY   63  32  30 SE8       29.71S

$$
NMZ524>526-539-540-251800-
SOUTHCENTRAL MOUNTAINS

CITY           SKY/WX    TMP DP  RH WIND       PRES   REMARKS
RUIDOSO        NOT AVBL

$$
NMZ527>531-251800-
NORTHEAST HIGHLANDS/NORTHEAST PLAINS

CITY           SKY/WX    TMP DP  RH WIND       PRES   REMARKS
LAS VEGAS      FAIR      54  34  46 SW21G32   29.64F
RATON          PTSUNNY   55  32  41 E7        29.58S
CLAYTON        FAIR      54  42  64 N13       29.58S

$$
NMZ532>537-251800-
EASTCENTRAL PLAINS

CITY           SKY/WX    TMP DP  RH WIND       PRES   REMARKS
SANTA ROSA     FAIR      62  37  38 W29G38    29.62F
TUCUMCARI      FAIR      72  35  25 W32G49    29.53S
CANNON AFB     PTSUNNY   69  30  23 W21G32    29.58R
CLOVIS AIRPORT FAIR      70  28  21 W25G31    29.57S

$$
NMZ028-029-538-251800-
SOUTHEAST PLAINS

CITY           SKY/WX    TMP DP  RH WIND       PRES   REMARKS
ROSWELL        PTSUNNY   80  25  13 N10G20      N/A
ARTESIA        FAIR      82  28  14 W31G41    29.58S
CARLSBAD       FAIR      81  26  13 W25       29.60R
HOBBS          SUNNY     75  27  16 SW29G37   29.61S


$$




USA.gov is the U.S. government's official web portal to all federal, state and local government web resources and services.